Flag for Canada Weather past 2 weeks in Aklavik, Northwest Territories, Canada

Now
48 °F

Overcast.


Feels Like: 44 °F
Forecast: 36 / 46 °F
Wind: 10 mph from South

Location: Inuvik

Current Time: Sep 2, 2014 at 3:43:29 AM

Latest Report: Sep 2, 2014 at 3:00 AM


Visibility: 15 mi

Pressure: 29.53 "Hg

Humidity: 54%

Dew point: 32 °F

Location of AklavikLocation

Historic Weather in Aklavik — Graph

°F

Aklavik temperature yesterday

Maximum temperature yesterday: 55 °F (at 4:00 PM)
Minimum temperature yesterday: 39 °F (at 7:00 AM)
Average temperature yesterday: 49 °F

Past Weeks' High & Low Weather Summary

 TemperatureHumidityPressure
High68 °F (Aug 29, 3:00 PM)100% (Aug 20, 2:00 AM)30.21 "Hg (Aug 20, 2:00 AM)
Low37 °F (Aug 26, 8:00 AM)33% (Sep 1, 5:00 PM)29.43 "Hg (Aug 29, 5:00 PM)
Average50 °F76%29.84 "Hg
* Reported Aug 18 2:00 AM — Sep 2 2:00 AM, Aklavik, Weather by CustomWeather, © 2014

Note: Actual official high and low records may vary slightly from our data, if they occured in-between our weather recording intervals... More about our weather records

Advertising

Aklavik weather history for previous 24 hours

 ConditionsComfort  
Time TempWeatherWind HumidityBarometerVisibility
2:00 AM
Sep 2
48 °FOvercast.12 mph50%29.52 "Hg15 mi
1:00 AM48 °FOvercast.12 mph46%29.52 "Hg15 mi
12:00 AM48 °FScattered clouds.13 mph46%29.54 "Hg15 mi
11:00 PM
Sep 1
50 °FScattered clouds.12 mph43%29.55 "Hg15 mi
10:00 PM52 °FScattered clouds.9 mph41%29.57 "Hg15 mi
9:00 PM54 °FScattered clouds.13 mph38%29.58 "Hg15 mi
8:00 PM55 °FScattered clouds.17 mph36%29.59 "Hg15 mi
7:00 PM55 °FPassing clouds.17 mph36%29.61 "Hg15 mi
6:00 PM55 °FScattered clouds.21 mph33%29.62 "Hg15 mi
5:00 PM55 °FScattered clouds.18 mph33%29.63 "Hg15 mi
4:00 PM55 °FScattered clouds.15 mph36%29.64 "Hg15 mi
3:00 PM54 °FPassing clouds.16 mph38%29.66 "Hg15 mi
2:00 PM54 °FScattered clouds.15 mph41%29.68 "Hg15 mi
1:00 PM52 °FPassing clouds.17 mph44%29.69 "Hg15 mi
12:00 PM50 °FPassing clouds.12 mph50%29.70 "Hg15 mi
11:00 AM46 °FPassing clouds.8 mph62%29.72 "Hg15 mi
10:00 AM43 °FPassing clouds.7 mph71%29.74 "Hg15 mi
9:00 AM41 °FPassing clouds.8 mph81%29.75 "Hg15 mi
8:00 AM39 °FPassing clouds.10 mph87%29.75 "Hg15 mi
7:00 AM39 °FPassing clouds.No wind87%29.75 "Hg15 mi
5:00 AM43 °FOvercast.7 mph81%29.75 "Hg15 mi
4:00 AM45 °FOvercast.No wind76%29.75 "Hg15 mi
3:00 AM45 °FOvercast.5 mph76%29.75 "Hg15 mi
Weather by CustomWeather, © 2014

See weather overviewHow to use our weather pages